Regional Weather Roundup
Issued by NWS San Angelo, TX

Home | Current Version | Previous Version | Text Only | Print | Product List | Glossary On
Versions: 1 2 3 4 5 6 7 8 9 10 11 12 13 14 15 16 17 18 19 20 21 22 23 24 25 26 27 28 29 30 31 32 33 34 35 36 37 38 39 40 41 42 43 44 45 46 47 48 49 50
221
ASUS44 KSJT 260011
RWRSJT
WEST CENTRAL TEXAS REGIONAL WEATHER ROUNDUP
NATIONAL WEATHER SERVICE SAN ANGELO TX
700 PM CDT MON JUL 25 2016

NOTE: "FAIR" INDICATES FEW OR NO CLOUDS BELOW 12,000 FEET WITH NO
SIGNIFICANT WEATHER AND/OR OBSTRUCTIONS TO VISIBILITY.

TXZ049-054-064>066-071>073-076>078-098-099-113-114-127-128-139-140-
154-155-168>170-260100
...LOCATIONS ACROSS WEST CENTRAL TEXAS...

CITY           SKY/WX    TMP DP  RH WIND       PRES   REMARKS
SAN ANGELO     SUNNY     99  58  25 E10       29.90S
ABILENE        SUNNY     97  63  32 E13       29.93R
DYESS AFB      SUNNY     98  65  33 E15       29.91R
JUNCTION       MOSUNNY   99  61  28 E12       29.88S
SWEETWATER     MOSUNNY   97  57  26 NE10      29.97F
BROWNWOOD      LGT RAIN  93  66  40 E16G25    29.92R
COLEMAN        CLEAR     97  61  30 E15       29.92R
SONORA         PTSUNNY   99  59  26 E12       29.94F
OZONA          FAIR      99  54  22 SE10      29.94S
BRADY          NOT AVBL
$$

TEXAS PANHANDLE/OKLAHOMA PANHANDLE

CITY           SKY/WX    TMP DP  RH WIND       PRES   REMARKS
AMARILLO       CLOUDY    81  62  52 S9        30.08F
BORGER         CLOUDY    91  64  40 SE9       30.04S
CANADIAN       CLOUDY    91  69  49 E7        30.00S
DALHART        SUNNY     91  61  36 E15       30.10S
DUMAS          CLEAR     90  64  42 SE14      30.08R
GUYMON         NOT AVBL
HEREFORD       CLOUDY    75  67  76 SE9       30.09F
PAMPA          CLOUDY    90  66  44 SE7       30.06F
PERRYTON       MOSUNNY   91  67  46 NE6       30.05S
$$

SOUTHERN PANHANDLE/SOUTH PLAINS/ROLLING PLAINS

CITY           SKY/WX    TMP DP  RH WIND       PRES   REMARKS
LUBBOCK        PTSUNNY   84  59  42 NE20G29   30.04S SMOKE
SNYDER           N/A     97  61  30 E6        29.95S
CHILDRESS      PTSUNNY   94  66  39 E8        29.95R THUNDER
SEMINOLE       CLEAR     97  48  19 E9        30.00F
$$

PERMIAN BASIN

CITY           SKY/WX    TMP DP  RH WIND       PRES   REMARKS
MIDLAND        MOSUNNY  100  57  23 E17       29.95S
ODESSA         MOSUNNY   97  55  24 E7        29.97S
WINK           MOSUNNY   97  55  24 SE14      29.92S
$$

FAR WEST/SOUTHWEST MOUNTAINS/TRANS PECOS

CITY           SKY/WX    TMP DP  RH WIND       PRES   REMARKS
ALPINE         MOCLDY    93  49  22 E13       30.10F
DRYDEN           N/A     98  59  27 E7G18     29.87F
EL PASO        MOSUNNY   99  44  15 SE10G18   29.96F
FORT STOCKTON  MOSUNNY   97  56  25 SE9G20    29.94S
GUADALUPE PASS MOSUNNY   89  49  25 E24       30.14S
MARFA          MOSUNNY   90  52  27 E14       30.08F
PECOS          CLEAR    101  53  19 E16G22    29.91S
$$

DALLAS/FORT WORTH METROPLEX

CITY           SKY/WX    TMP DP  RH WIND       PRES   REMARKS
DFW AIRPORT    CLOUDY    84  73  69 E12       29.91S
FTW MEACHAM    CLOUDY    95  65  37 E12G21    29.90R
DAL-EXECUTIVE  PTSUNNY   86  70  58 E10       29.91S
GRAND PRAIRIE  SUNNY     88  70  55 NE12G22   29.93R
ADDISON        MOSUNNY   82  75  78 E9G15     29.92F
MESQUITE       CLEAR     79  70  73 N3        29.91F
LANCASTER      CLOUDY    87  72  61 CALM      29.92F
$$

NORTH CENTRAL TEXAS

CITY           SKY/WX    TMP DP  RH WIND       PRES   REMARKS
SHRMAN/DENISON CLOUDY    86  75  68 E5        29.94S
GAINESVILLE    CLOUDY    87  71  57 SE13      29.94S
BRIDGEPORT     PTCLDY    93  70  46 E6        29.93S
DENTON         CLOUDY    88  71  57 E13       29.91R
WAXAHACHIE     CLOUDY    85  74  68 E5        29.94S
GRANBURY       CLOUDY    95  69  42 E12G20    29.92R
$$

WESTERN NORTH TEXAS

CITY           SKY/WX    TMP DP  RH WIND       PRES   REMARKS
WICHITA FALLS  CLOUDY    90  68  48 SE10      29.91R
VERNON         CLEAR     98  59  26 E10       29.92S
BRECKENRIDGE   CLEAR     98  61  28 E9        29.90R
COMANCHE       PTSUNNY   89  69  50 SE8       29.93R
$$

CENTRAL AND SOUTH CENTRAL TEXAS

CITY           SKY/WX    TMP DP  RH WIND       PRES   REMARKS
AUSTIN/BERGSTM TSTM      89  71  55 E24G30    29.88R
WACO           CLOUDY    77  71  82 E6        29.95R
HILLSBORO      CLOUDY    81  73  77 SE10G18   29.93S
TEMPLE         CLOUDY    77  73  88 E7        29.96R
KILLEEN-GRAY   LGT RAIN  84  72  65 E10       29.93R
FORT HOOD      LGT RAIN  80  72  75 E12       29.91R
GEORGETOWN     SUNNY     81  72  74 SE8       29.91S
LAGO VISTA     MOCLDY    76  73  91 E17G26    29.93R THUNDER
SAN MARCOS     PTSUNNY   93  70  46 SE10      29.87R
NEW BRAUNFELS  MOSUNNY   98  67  36 SE8       29.83R
RANDOLPH AFB   MOSUNNY   96  68  40 NE3       29.85S
SAN ANTONIO    PTSUNNY   92  70  48 NW3       29.85F
STINSON        MOSUNNY   96  68  39 N6        29.82S
PLEASANTON     NOT AVBL
LA GRANGE      LGT RAIN  79  76  92 SE15      29.92R
GIDDINGS       CLOUDY    82  73  75 SE12G18   29.97R
$$

EAST TEXAS

CITY           SKY/WX    TMP DP  RH WIND       PRES   REMARKS
PARIS          CLOUDY    86  66  51 E9        29.93R
CLARKSVILLE    NOT AVBL
TYLER          CLOUDY    85  73  67 CALM      29.92R
LONGVIEW       CLOUDY    90  74  59 SE3       29.89R
PALESTINE      CLOUDY    82  75  79 SW3       29.94R
NACOGDOCHES    CLOUDY   N/A N/A N/A S10       29.90R
$$

TEXAS HILL COUNTRY AND EDWARDS PLATEAU

CITY           SKY/WX    TMP DP  RH WIND       PRES   REMARKS
LLANO          CLOUDY    99  64  32 E13G21    29.91R THUNDER
HORSESHOE BAY  MOCLDY    95  65  37 E3        29.88R
KERRVILLE      SUNNY     92  69  47 SE12      29.91R
FREDERICKSBRG  SUNNY     93  64  37 SE7       29.91R
ROCKSPRINGS    CLOUDY    93  63  36 SE12      29.94S
HONDO          SUNNY     98  64  32 SE12G17   29.86F
UVALDE         CLEAR     98  64  33 E7        29.84F
DEL RIO        SUNNY    101  60  25 SE9       29.80F
$$

SOUTHEAST TEXAS

CITY           SKY/WX    TMP DP  RH WIND       PRES   REMARKS
COLLEGE STN    CLOUDY    80  74  81 E14       29.95R
CALDWELL       CLOUDY    82  72  69 E5        29.97R
CROCKETT       CLOUDY    77  73  88 CALM      29.96F
BRENHAM        CLOUDY    78  76  93 E8        29.96R
HUNTSVILLE     LGT RAIN  76  74  93 CALM      29.94F
CONROE         CLOUDY    79  72  79 NW7       29.93F
HOUSTON BUSH   CLOUDY    84  73  69 S5        29.93R
HOUSTON HOBBY  CLOUDY    82  75  79 SE7       29.91R
PERLAND        CLOUDY    82  77  84 E6        29.93R
WHARTON        TSTM      72  71  96 CALM      29.97R
$$

THE UPPER TEXAS COAST

CITY           SKY/WX    TMP DP  RH WIND       PRES   REMARKS
ORANGE         CLOUDY    77  75  93 CALM      29.92R FOG
PORT ARTHUR    LGT RAIN  78  77  96 W3        29.90R
GALVESTON      CLOUDY    81  77  88 S9        29.92R
ANGLETON       CLOUDY    84  77  79 E6        29.92R
BAY CITY       CLOUDY    85  74  71 E9        29.91S
$$

TEXAS COASTAL BEND, RIO GRANDE PLAINS DEEP SOUTH TEXAS

CITY           SKY/WX    TMP DP  RH WIND       PRES   REMARKS
VICTORIA       CLOUDY    88  73  61 SE13      29.88R
BEEVILLE       FAIR      87  76  69 SE12      29.84S
ROCKPORT       CLOUDY    88  75  65 SE15      29.85S
PORT ARANSAS   PTCLDY    87  78  74 SE9G21    29.86S
PORT LAVACA    MOCLDY    87  75  68 S13       29.89R
CORPUS CHRISTI PTSUNNY   89  75  63 SE15G25   29.85R
KINGSVILLE NAS PTSUNNY   91  78  65 SE17G23   29.84R
COTULLA        PTSUNNY  103  60  24 SE13      29.80F
LAREDO         MOSUNNY  100  66  32 SE10      29.80
BROWNSVILLE    PTSUNNY   88  76  67 SE18      29.86F
PORT ISABEL    PTSUNNY   88  76  67 SE20      29.86S
HEBBRONVILLE   PTCLDY    99  60  27 E10       29.83S
MCALLEN        MOSUNNY   98  70  40 SE17G24   29.83S
WESLACO        CLOUDY    90  -6   2 SE17G23   29.83R
FALFURRIAS     PTCLDY    94  73  50 E16       29.83R
EDINBURG       MOCLDY    97  63  32 SE9G18    29.82S
$$




USA.gov is the U.S. government's official web portal to all federal, state and local government web resources and services.